BREEZE-M DEB, 32047

Orbit data source: Space-Track

BREEZE-M DEB, 32047 is space debris originally from a launch on Tue, 28 Feb 2006 UTC launched from the Tyuratam Missile And Space Complex (TTMTR). Debris objects in space refer to the collection of defunct objects orbiting the Earth. Examples of debris include non-operational satellites, rocket bodies, and fragments generated from explosions, collisions, or faulty payload assembly.

Loading next visibility...
Identifier
32047, 2006-006AA
Orbit
Active
Country
Flag of CISCIS
Related business
Manufacturer
Khrunichev
Mission
Spacecraft
Bus & Motor
Unknown
Mass
Unknown
Launch date (UTC)
2006-02-28 (20 years ago)
Launch vehicle
Unknown
Launch site
Tyuratam Missile And Space Complex (TTMTR)
Object type
Payload
Rocket body
Debris
Shape & HBR
Unknown shape, 0.2 m
Radar Cross Section
Medium (>0.1 m² and <1 m²)

Expand to show TLE details & history
Last TLE update: 18 hours ago

TLE from 18 hours ago
0 BREEZE-M DEB
1 32047U 06006AA  26162.34634101  .00026355  00000-0  16763-1 0  9992
2 32047  51.3884 189.7076 4371211 296.3270  25.6026  6.52030622403928
Epoch: 2026-06-11T08:18Z
TLE epoch observation values (Epoch: 2026-06-11T08:18:43.863Z)
Latitude
0.00003°
Longitude
165.3334°
Altitude
1,827.73 km
Speed
8.015 km/s
True Right ascension
12h 38m 49s
True Declination
0° 00' 00"
Sunlit
Object was in daylight at epoch
Visualization orbit readout
Latitude
Unknown
Longitude
Unknown
Altitude
Unknown
Speed
Unknown
Apparent Right ascension
Unknown
Apparent Declination
Unknown
Sunlit
N/A
Visualization observer readout
Local Sidereal Time
12:53:59
Azimuth
Unknown
Elevation
Unknown
Doppler factor
Unknown
Orbital elements
Apogee altitude
11,015.827 km
Perigee altitude
434.577 km
Semi-major axis
12,103.339 km
Eccentricity
0.43712
Inclination
51.3884°
RAAN
189.7076°
Arg. of periapsis
296.327°
True anomaly
63.75633°
Mean anomaly
25.6026°
Eccentric anomaly
42.53377°
Mean motion
1.62999 °/min
Orbital period
220.86 mins
BSTAR
0.016763
Loading maneuver chart data...
Computing Atmospheric mass density...
Loading historical data...
Loading historical data...
Loading historical data...
Loading historical data...
Loading historical data...
Loading historical data...
Loading historical data...

Documentation

Showing up to 5 results
|